When you browse on this site, cookies collect data to enhance your experience and personalize the content and advertising you see.
Visit our Privacy Policy to learn more. By continuing to use the site, you agree to this use of cookies and data.
  • In United Kingdom
  • List of Countries
  • For 7 days
  • Water Temperature
  • Satellite Maps
  • Weather Map
  • Weather Widgets
  • user-avatar
    Login

    Hourly Weather Vanadzor

    Today, 21 May, Tuesday

    Time Temperature Precipitation Wind Pressure Humidity
    00:00 +10°C° 0.3 mm 1 mps 634 mmHg 93%
    01:00 +10°C° 0.2 mm 1 mps 635 mmHg 94%
    02:00 +10°C° 0.2 mm 1 mps 635 mmHg 95%
    03:00 +11°C° 0.2 mm 1 mps 635 mmHg 97%
    04:00 +11°C° 0.2 mm 1 mps 635 mmHg 97%
    05:00 +11°C° 0.2 mm 1 mps 636 mmHg 97%
    06:00 +12°C° 0.2 mm 1 mps 636 mmHg 97%
    07:00 +12°C° 0.1 mm 2 mps 636 mmHg 95%
    08:00 +12°C° 0.1 mm 2 mps 636 mmHg 94%
    09:00 +12°C° 0.1 mm 2 mps 636 mmHg 92%
    10:00 +13°C° 0.1 mm 2 mps 636 mmHg 90%
    11:00 +13°C° 0.1 mm 2 mps 637 mmHg 87%
    12:00 +14°C° 0.1 mm 2 mps 637 mmHg 85%
    13:00 +14°C° 0.1 mm 2 mps 637 mmHg 83%
    14:00 +15°C° 0.1 mm 2 mps 637 mmHg 81%
    15:00 +15°C° 0.1 mm 2 mps 637 mmHg 80%
    16:00 +15°C° 0.1 mm 2 mps 637 mmHg 82%
    17:00 +15°C° 0.1 mm 2 mps 637 mmHg 85%
    18:00 +14°C° 0.1 mm 2 mps 636 mmHg 87%
    19:00 +13°C° 0.1 mm 2 mps 637 mmHg 90%
    20:00 +12°C° 0.1 mm 1 mps 637 mmHg 94%
    21:00 +11°C° 0.1 mm 1 mps 637 mmHg 97%
    22:00 +11°C° 0 mm 1 mps 637 mmHg 96%
    23:00 +11°C° 0 mm 1 mps 637 mmHg 96%

    Tomorrow, 22 May, Wednesday

    Time Temperature Precipitation Wind Pressure Humidity
    00:00 +11°C° 0 mm 1 mps 637 mmHg 96%
    01:00 +10°C° 0 mm 1 mps 637 mmHg 96%
    02:00 +10°C° 0 mm 1 mps 637 mmHg 97%
    03:00 +10°C° 0 mm 1 mps 637 mmHg 97%
    04:00 +10°C° 0 mm 1 mps 637 mmHg 96%
    05:00 +11°C° 0 mm 1 mps 637 mmHg 94%
    06:00 +11°C° 0 mm 1 mps 637 mmHg 93%
    07:00 +12°C° 0 mm 1 mps 637 mmHg 86%
    08:00 +14°C° 0 mm 1 mps 637 mmHg 80%
    09:00 +15°C° 0 mm 1 mps 638 mmHg 73%
    10:00 +16°C° 0.2 mm 1 mps 638 mmHg 71%
    11:00 +18°C° 0.2 mm 1 mps 638 mmHg 68%
    12:00 +18°C° 0.2 mm 2 mps 638 mmHg 65%
    13:00 +19°C° 1 mm 1 mps 637 mmHg 70%
    14:00 +18°C° 1 mm 1 mps 636 mmHg 76%
    15:00 +16°C° 1 mm 1 mps 636 mmHg 81%
    16:00 +15°C° 1.2 mm 1 mps 635 mmHg 85%
    17:00 +15°C° 1.2 mm 1 mps 635 mmHg 88%
    18:00 +14°C° 1.2 mm 1 mps 635 mmHg 92%
    19:00 +14°C° 0.1 mm 1 mps 636 mmHg 91%
    20:00 +13°C° 0.1 mm 1 mps 636 mmHg 91%
    21:00 +12°C° 0.1 mm 1 mps 636 mmHg 90%
    22:00 +12°C° 0 mm 1 mps 636 mmHg 88%
    23:00 +11°C° 0 mm 1 mps 636 mmHg 85%

    Day after tomorrow, 23 May, Thursday

    Time Temperature Precipitation Wind Pressure Humidity
    00:00 +10°C° 0 mm 1 mps 636 mmHg 83%
    01:00 +10°C° 0 mm 1 mps 635 mmHg 81%
    02:00 +8°C° 0 mm 2 mps 635 mmHg 79%
    03:00 +8°C° 0 mm 2 mps 634 mmHg 77%
    04:00 +8°C° 0 mm 2 mps 635 mmHg 77%
    05:00 +9°C° 0 mm 2 mps 635 mmHg 77%
    06:00 +9°C° 0 mm 2 mps 635 mmHg 77%
    07:00 +13°C° 0 mm 2 mps 635 mmHg 69%
    08:00 +14°C° 0 mm 3 mps 636 mmHg 61%
    09:00 +17°C° 0 mm 3 mps 636 mmHg 53%
    10:00 +18°C° 0 mm 4 mps 636 mmHg 51%
    11:00 +19°C° 0 mm 4 mps 636 mmHg 49%
    12:00 +20°C° 0 mm 5 mps 636 mmHg 46%
    13:00 +20°C° 0.1 mm 5 mps 636 mmHg 46%
    14:00 +20°C° 0.1 mm 5 mps 636 mmHg 46%
    15:00 +20°C° 0.1 mm 5 mps 635 mmHg 46%
    16:00 +19°C° 0 mm 4 mps 635 mmHg 51%
    17:00 +18°C° 0 mm 3 mps 635 mmHg 57%
    18:00 +17°C° 0 mm 2 mps 635 mmHg 62%
    19:00 +15°C° 0 mm 2 mps 635 mmHg 63%
    20:00 +13°C° 0 mm 2 mps 635 mmHg 65%
    21:00 +11°C° 0 mm 1 mps 634 mmHg 66%
    22:00 +9°C° 0 mm 2 mps 635 mmHg 63%
    23:00 +8°C° 0 mm 2 mps 635 mmHg 59%

    24 May, Friday

    Time Temperature Precipitation Wind Pressure Humidity
    00:00 +8°C° 0 mm 2 mps 635 mmHg 56%
    01:00 +7°C° 0 mm 2 mps 634 mmHg 52%
    02:00 +7°C° 0 mm 2 mps 634 mmHg 49%
    03:00 +7°C° 0 mm 2 mps 634 mmHg 46%
    04:00 +7°C° 0 mm 2 mps 635 mmHg 49%
    05:00 +8°C° 0 mm 2 mps 635 mmHg 52%
    06:00 +9°C° 0 mm 2 mps 635 mmHg 56%
    07:00 +13°C° 0 mm 1 mps 636 mmHg 50%
    08:00 +15°C° 0 mm 1 mps 637 mmHg 44%
    09:00 +19°C° 0 mm 1 mps 637 mmHg 38%
    10:00 +19°C° 0 mm 2 mps 637 mmHg 40%
    11:00 +20°C° 0 mm 2 mps 638 mmHg 41%
    12:00 +21°C° 0 mm 2 mps 638 mmHg 42%
    13:00 +21°C° 0 mm 2 mps 637 mmHg 45%
    14:00 +21°C° 0 mm 2 mps 637 mmHg 47%
    15:00 +21°C° 0 mm 2 mps 637 mmHg 50%
    16:00 +21°C° 0 mm 2 mps 637 mmHg 56%
    17:00 +21°C° 0 mm 1 mps 637 mmHg 62%
    18:00 +21°C° 0 mm 1 mps 637 mmHg 68%
    19:00 +19°C° 0 mm 1 mps 637 mmHg 72%
    20:00 +15°C° 0 mm 1 mps 637 mmHg 75%
    21:00 +13°C° 0 mm 1 mps 636 mmHg 79%
    22:00 +13°C° 0 mm 1 mps 637 mmHg 77%
    23:00 +13°C° 0 mm 2 mps 637 mmHg 75%

    25 May, Saturday

    Time Temperature Precipitation Wind Pressure Humidity
    00:00 +13°C° 0 mm 2 mps 637 mmHg 73%
    01:00 +13°C° 0 mm 2 mps 637 mmHg 72%
    02:00 +14°C° 0 mm 2 mps 637 mmHg 72%
    03:00 +14°C° 0 mm 2 mps 637 mmHg 71%
    04:00 +14°C° 0 mm 2 mps 637 mmHg 73%
    05:00 +14°C° 0 mm 2 mps 637 mmHg 76%
    06:00 +14°C° 0 mm 2 mps 637 mmHg 78%
    07:00 +17°C° 0 mm 2 mps 638 mmHg 70%
    08:00 +19°C° 0 mm 2 mps 638 mmHg 63%
    09:00 +22°C° 0 mm 3 mps 639 mmHg 55%
    10:00 +22°C° 0 mm 3 mps 639 mmHg 52%
    11:00 +24°C° 0 mm 3 mps 639 mmHg 49%
    12:00 +25°C° 0 mm 3 mps 639 mmHg 46%
    13:00 +25°C° 0.1 mm 3 mps 639 mmHg 46%
    14:00 +26°C° 0.1 mm 3 mps 638 mmHg 46%
    15:00 +26°C° 0.1 mm 3 mps 638 mmHg 46%
    16:00 +25°C° 0.3 mm 2 mps 638 mmHg 55%
    17:00 +23°C° 0.3 mm 2 mps 637 mmHg 64%
    18:00 +21°C° 0.3 mm 2 mps 636 mmHg 73%
    19:00 +19°C° 0.2 mm 2 mps 636 mmHg 74%
    20:00 +17°C° 0.2 mm 2 mps 636 mmHg 75%
    21:00 +15°C° 0.2 mm 2 mps 635 mmHg 75%
    22:00 +15°C° 0.5 mm 2 mps 635 mmHg 74%
    23:00 +14°C° 0.5 mm 2 mps 635 mmHg 73%

    26 May, Sunday

    Time Temperature Precipitation Wind Pressure Humidity
    00:00 +14°C° 0.5 mm 2 mps 635 mmHg 71%
    01:00 +13°C° 0 mm 1 mps 635 mmHg 72%
    02:00 +13°C° 0 mm 1 mps 634 mmHg 72%
    03:00 +12°C° 0 mm 1 mps 634 mmHg 73%
    04:00 +13°C° 0 mm 1 mps 635 mmHg 73%
    05:00 +14°C° 0 mm 1 mps 635 mmHg 72%
    06:00 +15°C° 0 mm 1 mps 635 mmHg 72%
    07:00 +18°C° 0 mm 1 mps 636 mmHg 65%
    08:00 +20°C° 0 mm 1 mps 636 mmHg 59%
    09:00 +22°C° 0 mm 1 mps 637 mmHg 52%
    10:00 +23°C° 0 mm 1 mps 637 mmHg 49%
    11:00 +24°C° 0 mm 2 mps 637 mmHg 45%
    12:00 +25°C° 0 mm 2 mps 637 mmHg 42%
    13:00 +25°C° 0.1 mm 2 mps 637 mmHg 43%
    14:00 +25°C° 0.1 mm 2 mps 636 mmHg 45%
    15:00 +25°C° 0.1 mm 3 mps 636 mmHg 47%
    16:00 +24°C° 1.2 mm 2 mps 636 mmHg 57%
    17:00 +21°C° 1.2 mm 2 mps 636 mmHg 67%
    18:00 +19°C° 1.2 mm 2 mps 635 mmHg 77%
    19:00 +18°C° 0.1 mm 2 mps 635 mmHg 82%
    20:00 +16°C° 0.1 mm 1 mps 635 mmHg 87%
    21:00 +14°C° 0.1 mm 1 mps 635 mmHg 92%
    22:00 +14°C° 0 mm 1 mps 636 mmHg 92%
    23:00 +13°C° 0 mm 1 mps 636 mmHg 92%
    Show more